This is the latest recevied weather packets stored in our database for station/object KC3BHK-2. If no packets are shown the sender has not sent any weather packets the latest 1 day(s).
| Time | Temp. | Humidity | Pressure | Rain* | Wind** | Luminosity | Snow |
|---|---|---|---|---|---|---|---|
| 1778026240 | 25° C | - | - | 0 mm | 2.24 m/s, 180° | - | - |
| 1778025933 | 24.44° C | - | - | 0 mm | 4.92 m/s, 174° | - | - |
| 1778025628 | 23.89° C | - | - | 0 mm | 4.47 m/s, 159° | - | - |
| 1778025323 | 24.44° C | - | - | 0 mm | 6.26 m/s, 163° | - | - |
| 1778025019 | 25° C | - | - | 0 mm | 3.58 m/s, 158° | - | - |
| 1778024714 | 25° C | - | - | 0 mm | 3.13 m/s, 156° | - | - |
| 1778024409 | 25° C | - | - | 0 mm | 4.92 m/s, 150° | - | - |
| 1778024101 | 25.56° C | - | - | 0 mm | 4.47 m/s, 177° | - | - |
| 1778023796 | 25.56° C | - | - | 0 mm | 3.58 m/s, 176° | - | - |
| 1778023492 | 25° C | - | - | 0 mm | 3.13 m/s, 169° | - | - |
| 1778023187 | 25.56° C | - | - | 0 mm | 4.02 m/s, 188° | - | - |
| 1778022882 | 25.56° C | - | - | 0 mm | 7.6 m/s, 172° | - | - |
| 1778022578 | 26.11° C | - | - | 0 mm | 2.68 m/s, 153° | - | - |
| 1778022270 | 25.56° C | - | - | 0 mm | 5.81 m/s, 174° | - | - |
| 1778021966 | 26.11° C | - | - | 0 mm | 4.92 m/s, 173° | - | - |
| 1778021661 | 26.67° C | - | - | 0 mm | 4.47 m/s, 127° | - | - |
| 1778021356 | 27.78° C | - | - | 0 mm | 4.02 m/s, 127° | - | - |
| 1778021052 | 26.67° C | - | - | 0 mm | 3.58 m/s, 159° | - | - |
| 1778020747 | 26.67° C | - | - | 0 mm | 4.47 m/s, 153° | - | - |
| 1778020440 | 26.67° C | - | - | 0 mm | 5.81 m/s, 198° | - | - |
| 1778020135 | 26.11° C | - | - | 0 mm | 5.81 m/s, 115° | - | - |
| 1778019831 | 26.67° C | - | - | 0 mm | 6.26 m/s, 165° | - | - |
| 1778019526 | 26.67° C | - | - | 0 mm | 4.02 m/s, 160° | - | - |
| 1778019221 | 26.67° C | - | - | 0 mm | 4.02 m/s, 233° | - | - |
| 1778018917 | 26.67° C | - | - | 0 mm | 2.24 m/s, 221° | - | - |
* Rain latest hour (hover to see other rain measurements)
** Current wind speed in m/s (hover to see current wind gust speed)